Starlink 34533

operational
NORAD ID: 64715 Int'l Des: 2025-142 Owner: SPXS Country: US Constellation: starlink
LEOCIRCULAR

Über Starlink 34533

Beschreibung wird geladen...

Live-Position

3D-Globus wird geladen...

Nächste Überflüge

Höhenverlauf

Altitude vs Time

uPlot chart will show altitude changes over time

Zweizeiliger Elementsatz

1 64715U 25142V 25340.97653841 -.00580261 00000-0 -53130-1 0 9991
2 64715 69.9995 188.2007 0004906 10.9356 349.1908 14.97183375 25572
Epoch: 6. Dez. 2025 • Age: 18 hours

Aktueller Status

Höhe 585.6 km
Geschwindigkeit 7.57 km/s
Subsatellitenpunkt 58.21°N, 115.19°W
Startdatum 28. Juni 2025
Alter 0.4 years
Typ internet

Technische Details

Klassifizierung Payload
Masse 575.00 kg
Trockenmasse 530.00 kg
Gesamtmasse 575.00 kg
Länge 0.30 m
Durchmesser 4.10 m
Spannweite 29.00 m
Form Box + pan
Hersteller SPXS
Bus-Typ Starlink V2MO
Phasenstatus In Orbit
Besitzer/Staat SPXS/US

Große Konstellationen

Loading constellations...